When you browse on this site, cookies collect data to enhance your experience and personalize the content and advertising you see.
Visit our Privacy Policy to learn more. By continuing to use the site, you agree to this use of cookies and data.
  • En España
  • Lista de países
  • Para 7 días
  • Temperatura del agua
  • Mapa Satelital
  • El tiempo en el mapa
  • Informadores
  • user-avatar
    Iniciar sesión

    Tiempo cada hora Gor-Apole

    Hoy, 27 Mayo, Lunes

    Tiempo Temperatura Precipitaciones Viento Presión Humedad
    00:00 +10°C° 0 mm 3 mps 739 mmHg 88%
    01:00 +9°C° 0 mm 3 mps 740 mmHg 89%
    02:00 +9°C° 0 mm 3 mps 740 mmHg 91%
    03:00 +9°C° 0 mm 3 mps 740 mmHg 90%
    04:00 +8°C° 0 mm 4 mps 740 mmHg 89%
    05:00 +10°C° 0 mm 4 mps 740 mmHg 87%
    06:00 +10°C° 0.1 mm 4 mps 740 mmHg 87%
    07:00 +11°C° 0.1 mm 4 mps 740 mmHg 87%
    08:00 +11°C° 0.1 mm 4 mps 740 mmHg 86%
    09:00 +13°C° 0 mm 5 mps 741 mmHg 81%
    10:00 +15°C° 0 mm 5 mps 741 mmHg 76%
    11:00 +17°C° 0 mm 6 mps 741 mmHg 70%
    12:00 +19°C° 0.2 mm 5 mps 741 mmHg 71%
    13:00 +19°C° 0.2 mm 5 mps 741 mmHg 72%
    14:00 +20°C° 0.2 mm 5 mps 741 mmHg 72%
    15:00 +20°C° 0.7 mm 5 mps 741 mmHg 76%
    16:00 +20°C° 0.7 mm 4 mps 741 mmHg 80%
    17:00 +19°C° 0.7 mm 4 mps 741 mmHg 84%
    18:00 +18°C° 0.5 mm 3 mps 741 mmHg 86%
    19:00 +17°C° 0.5 mm 3 mps 741 mmHg 88%
    20:00 +16°C° 0.5 mm 3 mps 742 mmHg 90%
    21:00 +16°C° 0 mm 2 mps 742 mmHg 91%
    22:00 +15°C° 0 mm 2 mps 742 mmHg 92%
    23:00 +14°C° 0 mm 2 mps 742 mmHg 94%

    Mañana, 28 Mayo, Martes

    Tiempo Temperatura Precipitaciones Viento Presión Humedad
    00:00 +14°C° 0 mm 2 mps 742 mmHg 94%
    01:00 +14°C° 0 mm 2 mps 742 mmHg 95%
    02:00 +14°C° 0 mm 2 mps 742 mmHg 96%
    03:00 +14°C° 0 mm 2 mps 743 mmHg 96%
    04:00 +14°C° 0 mm 2 mps 743 mmHg 96%
    05:00 +15°C° 0 mm 2 mps 743 mmHg 96%
    06:00 +16°C° 0 mm 2 mps 743 mmHg 91%
    07:00 +18°C° 0 mm 3 mps 743 mmHg 87%
    08:00 +20°C° 0 mm 3 mps 743 mmHg 82%
    09:00 +21°C° 0.1 mm 4 mps 743 mmHg 77%
    10:00 +23°C° 0.1 mm 5 mps 743 mmHg 72%
    11:00 +24°C° 0.1 mm 6 mps 742 mmHg 67%
    12:00 +24°C° 0.4 mm 6 mps 742 mmHg 69%
    13:00 +24°C° 0.4 mm 6 mps 742 mmHg 70%
    14:00 +24°C° 0.4 mm 6 mps 742 mmHg 72%
    15:00 +24°C° 0 mm 6 mps 742 mmHg 69%
    16:00 +24°C° 0 mm 6 mps 742 mmHg 67%
    17:00 +24°C° 0 mm 6 mps 741 mmHg 64%
    18:00 +23°C° 0 mm 5 mps 741 mmHg 68%
    19:00 +22°C° 0 mm 5 mps 742 mmHg 71%
    20:00 +21°C° 0 mm 5 mps 742 mmHg 75%
    21:00 +20°C° 0 mm 5 mps 742 mmHg 75%
    22:00 +20°C° 0 mm 5 mps 742 mmHg 75%
    23:00 +20°C° 0 mm 5 mps 742 mmHg 75%

    Pasado mañana, 29 Mayo, Miércoles

    Tiempo Temperatura Precipitaciones Viento Presión Humedad
    00:00 +19°C° 0 mm 4 mps 742 mmHg 78%
    01:00 +19°C° 0 mm 4 mps 742 mmHg 81%
    02:00 +19°C° 0 mm 4 mps 742 mmHg 84%
    03:00 +19°C° 0 mm 4 mps 742 mmHg 84%
    04:00 +19°C° 0 mm 5 mps 742 mmHg 84%
    05:00 +19°C° 0 mm 5 mps 742 mmHg 85%
    06:00 +20°C° 0 mm 5 mps 742 mmHg 79%
    07:00 +21°C° 0 mm 6 mps 743 mmHg 74%
    08:00 +22°C° 0 mm 6 mps 743 mmHg 68%
    09:00 +23°C° 0 mm 6 mps 743 mmHg 66%
    10:00 +24°C° 0 mm 6 mps 743 mmHg 63%
    11:00 +24°C° 0 mm 7 mps 743 mmHg 60%
    12:00 +24°C° 0 mm 6 mps 743 mmHg 64%
    13:00 +23°C° 0 mm 5 mps 743 mmHg 67%
    14:00 +23°C° 0 mm 4 mps 743 mmHg 71%
    15:00 +23°C° 0 mm 4 mps 743 mmHg 73%
    16:00 +23°C° 0 mm 4 mps 743 mmHg 74%
    17:00 +24°C° 0 mm 3 mps 743 mmHg 76%
    18:00 +22°C° 0.4 mm 3 mps 743 mmHg 79%
    19:00 +21°C° 0.4 mm 3 mps 743 mmHg 83%
    20:00 +20°C° 0.4 mm 4 mps 743 mmHg 87%
    21:00 +20°C° 1.7 mm 3 mps 743 mmHg 89%
    22:00 +19°C° 1.7 mm 3 mps 744 mmHg 92%
    23:00 +18°C° 1.7 mm 2 mps 744 mmHg 95%

    30 Mayo, Jueves

    Tiempo Temperatura Precipitaciones Viento Presión Humedad
    00:00 +18°C° 0 mm 2 mps 744 mmHg 95%
    01:00 +18°C° 0 mm 2 mps 744 mmHg 96%
    02:00 +18°C° 0 mm 3 mps 744 mmHg 96%
    03:00 +18°C° 0.2 mm 2 mps 744 mmHg 96%
    04:00 +18°C° 0.2 mm 2 mps 744 mmHg 96%
    05:00 +18°C° 0.2 mm 2 mps 744 mmHg 96%
    06:00 +19°C° 0.1 mm 2 mps 744 mmHg 93%
    07:00 +20°C° 0.1 mm 2 mps 744 mmHg 90%
    08:00 +21°C° 0.1 mm 2 mps 745 mmHg 87%
    09:00 +23°C° 1 mm 2 mps 745 mmHg 84%
    10:00 +24°C° 1 mm 2 mps 745 mmHg 81%
    11:00 +24°C° 1 mm 2 mps 745 mmHg 78%
    12:00 +25°C° 0.9 mm 2 mps 745 mmHg 77%
    13:00 +25°C° 0.9 mm 2 mps 745 mmHg 77%
    14:00 +25°C° 0.9 mm 2 mps 745 mmHg 76%
    15:00 +24°C° 1.1 mm 2 mps 745 mmHg 80%
    16:00 +24°C° 1.1 mm 1 mps 745 mmHg 84%
    17:00 +23°C° 1.1 mm 1 mps 745 mmHg 87%
    18:00 +22°C° 0.8 mm 1 mps 745 mmHg 89%
    19:00 +21°C° 0.8 mm 1 mps 745 mmHg 90%
    20:00 +20°C° 0.8 mm 1 mps 745 mmHg 91%
    21:00 +19°C° 0.1 mm 1 mps 745 mmHg 93%
    22:00 +19°C° 0.1 mm 1 mps 745 mmHg 94%
    23:00 +18°C° 0.1 mm 1 mps 745 mmHg 95%

    31 Mayo, Viernes

    Tiempo Temperatura Precipitaciones Viento Presión Humedad
    00:00 +18°C° 0 mm 1 mps 745 mmHg 96%
    01:00 +18°C° 0 mm 1 mps 745 mmHg 96%
    02:00 +16°C° 0 mm 1 mps 745 mmHg 97%
    03:00 +18°C° 0 mm 1 mps 745 mmHg 96%
    04:00 +18°C° 0 mm 1 mps 745 mmHg 96%
    05:00 +18°C° 0 mm 1 mps 745 mmHg 96%
    06:00 +20°C° 0 mm 1 mps 745 mmHg 93%
    07:00 +21°C° 0 mm 1 mps 745 mmHg 89%
    08:00 +23°C° 0 mm 2 mps 745 mmHg 85%
    09:00 +24°C° 0.4 mm 2 mps 744 mmHg 77%
    10:00 +26°C° 0.4 mm 3 mps 744 mmHg 69%
    11:00 +27°C° 0.4 mm 4 mps 744 mmHg 61%
    12:00 +27°C° 0.4 mm 4 mps 744 mmHg 63%
    13:00 +27°C° 0.4 mm 4 mps 744 mmHg 65%
    14:00 +27°C° 0.4 mm 5 mps 743 mmHg 67%
    15:00 +26°C° 0.6 mm 4 mps 743 mmHg 73%
    16:00 +25°C° 0.6 mm 3 mps 743 mmHg 79%
    17:00 +25°C° 0.6 mm 3 mps 743 mmHg 85%
    18:00 +22°C° 0.1 mm 3 mps 743 mmHg 87%
    19:00 +21°C° 0.1 mm 3 mps 743 mmHg 90%
    20:00 +20°C° 0.1 mm 2 mps 743 mmHg 92%
    21:00 +20°C° 0.9 mm 2 mps 743 mmHg 93%
    22:00 +20°C° 0.9 mm 3 mps 743 mmHg 93%
    23:00 +19°C° 0.9 mm 3 mps 743 mmHg 93%

    1 Junio, Sábado

    Tiempo Temperatura Precipitaciones Viento Presión Humedad
    00:00 +19°C° 0.7 mm 2 mps 742 mmHg 94%
    01:00 +19°C° 0.7 mm 2 mps 742 mmHg 94%
    02:00 +18°C° 0.7 mm 2 mps 742 mmHg 95%
    03:00 +18°C° 0 mm 2 mps 742 mmHg 95%
    04:00 +18°C° 0 mm 2 mps 742 mmHg 95%
    05:00 +19°C° 0 mm 2 mps 742 mmHg 95%
    06:00 +19°C° 0.5 mm 2 mps 743 mmHg 93%
    07:00 +20°C° 0.5 mm 2 mps 743 mmHg 92%
    08:00 +21°C° 0.5 mm 3 mps 743 mmHg 90%
    09:00 +20°C° 1.4 mm 3 mps 744 mmHg 91%
    10:00 +20°C° 1.4 mm 3 mps 744 mmHg 92%
    11:00 +20°C° 1.4 mm 3 mps 745 mmHg 92%
    12:00 +19°C° 1.8 mm 4 mps 745 mmHg 93%
    13:00 +17°C° 1.8 mm 4 mps 745 mmHg 94%
    14:00 +15°C° 1.8 mm 4 mps 745 mmHg 95%
    15:00 +15°C° 0.8 mm 4 mps 746 mmHg 94%
    16:00 +14°C° 0.8 mm 4 mps 746 mmHg 93%
    17:00 +14°C° 0.8 mm 4 mps 746 mmHg 93%
    18:00 +13°C° 0 mm 3 mps 746 mmHg 91%
    19:00 +13°C° 0 mm 3 mps 747 mmHg 90%
    20:00 +13°C° 0 mm 3 mps 747 mmHg 89%
    21:00 +12°C° 0.4 mm 3 mps 748 mmHg 88%
    22:00 +11°C° 0.4 mm 4 mps 748 mmHg 88%
    23:00 +9°C° 0.4 mm 5 mps 749 mmHg 88%
    Mostrar más